www.pogodaiklimat.ru

Погода и климат >> Архив погоды >> Венгрия >> Agard


ПОГОДА в Agard

  • Прогноз погоды в Agard
  • Монитор погоды в Agard
  • Климат города

АРХИВ ПОГОДЫ в Agard

Время (UTC), дата Ветер
(напр.,м/с)
 
Видим.   Явления Облачность Т
(С)
Тd
(С)
f
(%)
Тe
(С)
Тes
(С)
Комфортность P
(гПа)
Po
(гПа)
Тmin
(С)
Tmax
(С)
R
(мм)
R24
(мм)
S
(см)
07 11.08 СЗ 4 н/о н/о +19.3 +19.3 100 +22 +22 комфорт 1020.6 1008.1
08 11.08 СЗ 5
{7}
н/о н/о +19.7 +19.0 96 +22 +22 комфорт 1020.7 1008.2
09 11.08 СЗ 2 н/о н/о +19.9 +18.2 90 +23 +23 комфорт 1021.0 1008.5
10 11.08 СЗ 3 н/о н/о +21.4 +18.6 84 +26 +26 душно 1021.2 1008.8
11 11.08 СЗ 2 н/о н/о +22.1 +18.5 80 +27 +27 душно 1021.2 1008.8
12 11.08 СВ 1 н/о н/о +23.9 +19.0 74 +29 +29 душно 1020.8 1008.5 5
13 11.08 СЗ 2 н/о н/о +24.5 +18.9 71 +29 +29 душно 1020.5 1008.2
14 11.08 СЗ 4 н/о н/о +25.1 +19.2 70 +30 +30 душно 1020.1 1007.8
15 11.08 СЗ 3 н/о н/о +24.8 +18.5 68 +29 +29 душно 1019.8 1007.5
16 11.08 СЗ 3 н/о н/о +25.3 +18.0 64 +30 +30 душно 1019.3 1007.0
17 11.08 СЗ 3 н/о н/о +24.9 +18.4 67 +29 +29 душно 1019.1 1006.8
18 11.08 СЗ 2 н/о н/о +23.9 +18.8 73 +29 +29 душно 1019.3 1007.0 +25.6 5
19 11.08 СЗ 2 н/о н/о +22.8 +18.6 77 +29 +29 очень
душно
1020.0 1007.6
20 11.08 СЗ 1 н/о н/о +22.3 +18.1 77 +27 +27 душно 1020.3 1007.9
21 11.08 СЗ 1 н/о н/о +20.9 +17.9 83 +26 +26 душно 1020.3 1007.8
22 11.08 штиль 0 н/о н/о +19.3 +17.6 90 +21 +21 комфорт 1020.4 1007.9
23 11.08 штиль 0 н/о н/о +18.7 +17.4 92 +20 +20 1020.2 1007.7
00 12.08 Ю 1 н/о н/о +18.4 +16.9 91 +20 +20 1020.4 1007.8
01 12.08 Ю 1 н/о н/о +17.5 +16.9 96 +19 +19 1020.4 1007.8
02 12.08 Ю 1 н/о н/о +16.9 +16.3 96 +18 +18 1020.2 1007.6
03 12.08 ЮЗ 1 н/о н/о +16.6 +16.0 96 +17 +17 1020.1 1007.5
04 12.08 З 1 н/о н/о +17.1 +14.7 86 +18 +18 1020.0 1007.4
05 12.08 З 2 н/о н/о +18.3 +14.4 78 +19 +19 1020.3 1007.7
06 12.08 СЗ 3 н/о н/о +19.8 +14.4 71 +22 +22 комфорт 1020.3 1007.8 +16.3
07 12.08 З 2 н/о н/о +22.2 +14.6 62 +26 +26 душно 1020.1 1007.7
08 12.08 З 2 н/о н/о +24.2 +14.9 56 +27 +27 жарко 1020.0 1007.7
09 12.08 СЗ 2 н/о н/о +26.7 +13.1 43 +28 +28 жарко 1019.8 1007.6
10 12.08 СЗ 2 н/о н/о +27.5 +12.3 39 +29 +29 жарко 1019.7 1007.5
11 12.08 С 1 н/о н/о +28.2 +12.5 38 +30 +30 жарко 1019.2 1007.1
12 12.08 СЗ 1 н/о н/о +28.7 +13.0 38 +30 +30 жарко 1018.8 1006.7
13 12.08 З 2 н/о н/о +29.0 +12.4 36 +30 +30 жарко 1018.3 1006.2
14 12.08 З 1 н/о н/о +29.7 +13.5 37 +31 +31 жарко 1017.8 1005.7
15 12.08 З 1 н/о н/о +29.9 +12.8 35 +31 +31 жарко 1017.1 1005.0
16 12.08 ЮЗ 1 н/о н/о +29.6 +12.1 34 +30 +30 жарко 1016.6 1004.5
17 12.08 ЮЗ 1 н/о н/о +28.7 +13.0 38 +30 +30 жарко 1016.1 1004.0
18 12.08 штиль 0 н/о н/о +25.9 +15.6 53 +29 +29 душно 1015.6 1003.4 +30.2
19 12.08 штиль 0 н/о н/о +22.3 +15.9 67 +26 +26 жарко 1015.7 1003.4
20 12.08 штиль 0 н/о н/о +20.7 +16.7 78 +24 +24 комфорт 1015.8 1003.4
21 12.08 штиль 0 н/о н/о +19.7 +17.1 85 +22 +22 комфорт 1015.9 1003.4
22 12.08 штиль 0 н/о н/о +18.8 +16.0 84 +20 +20 1015.8 1003.3
23 12.08 штиль 0 н/о н/о +18.2 +16.7 91 +19 +19 1015.6 1003.1
00 13.08 СВ 1 н/о н/о +18.0 +16.7 92 +19 +19 1015.3 1002.8
01 13.08 штиль 0 н/о н/о +17.4 +15.7 90 +17 +17 1015.0 1002.5
02 13.08 В 1 н/о н/о +17.1 +15.3 89 +18 +18 1014.6 1002.1
03 13.08 В 1 н/о н/о +16.7 +15.1 90 +18 +18 1014.6 1002.0
04 13.08 В 1 н/о н/о +16.9 +14.7 87 +18 +18 1014.4 1001.8
05 13.08 СВ 1 н/о н/о +18.2 +15.3 83 +20 +20 1014.2 1001.7
06 13.08 В 1 н/о н/о +21.6 +16.1 71 +25 +25 комфорт 1013.8 1001.5 +16.6
07 13.08 С 2 н/о н/о +23.1 +18.4 75 +29 +29 очень
душно
1013.6 1001.3
08 13.08 СЗ 1 н/о н/о +25.8 +18.2 63 +30 +30 душно 1013.6 1001.4
09 13.08 Ю 1 н/о н/о +28.5 +18.6 55 +34 +34 очень
душно
1013.3 1001.2
10 13.08 Ю 2 н/о н/о +29.9 +17.4 47 +34 +34 очень
душно
1012.8 1000.8
11 13.08 Ю 3
{7}
н/о н/о +30.4 +17.1 45 +34 +34 очень
душно
1012.6 1000.6
12 13.08 ЮВ 2
{7}
н/о н/о +31.3 +16.5 41 +34 +34 душно 1011.7 999.8
13 13.08 Ю 3 н/о н/о +31.5 +15.9 39 +34 +34 душно 1011.3 999.4
14 13.08 Ю 2 н/о н/о +32.0 +16.3 39 +35 +35 очень
душно
1010.5 998.6
15 13.08 Ю 3
{7}
н/о н/о +31.8 +16.5 40 +35 +35 очень
душно
1009.9 998.0
16 13.08 Ю 2 н/о н/о +31.2 +17.5 44 +35 +35 очень
душно
1009.5 997.6
17 13.08 Ю 1 н/о н/о +30.7 +17.1 44 +34 +34 очень
душно
1008.9 997.0
18 13.08 ЮВ 1 н/о н/о +28.5 +17.4 51 +33 +33 очень
душно
1008.7 996.7 +32.2
19 13.08 Ю 1 н/о н/о +25.6 +18.0 63 +30 +30 душно 1009.2 997.1
20 13.08 ЮВ 1 н/о н/о +24.5 +17.7 66 +29 +29 душно 1009.4 997.2
21 13.08 штиль 0 н/о н/о +22.4 +18.2 77 +28 +28 душно 1009.5 997.2
22 13.08 штиль 0 н/о н/о +21.4 +18.0 81 +26 +26 душно 1009.8 997.5
23 13.08 штиль 0 н/о н/о +20.6 +18.0 85 +24 +24 комфорт 1010.1 997.8
00 14.08 В 1 н/о н/о +20.4 +17.6 84 +25 +25 комфорт 1010.0 997.6
01 14.08 В 1 н/о н/о +19.6 +17.2 86 +23 +23 комфорт 1009.8 997.4
02 14.08 штиль 0 н/о н/о +18.8 +16.9 89 +20 +20 1010.1 997.7
03 14.08 штиль 0 н/о н/о +18.3 +16.8 91 +19 +19 1010.1 997.7
04 14.08 Ю 1 н/о н/о +18.6 +16.9 90 +21 +21 комфорт 1010.1 997.7
05 14.08 ЮЗ 1 н/о н/о +19.4 +17.7 90 +23 +23 комфорт 1010.4 998.0
06 14.08 штиль 0 н/о н/о +22.0 +18.4 80 +27 +27 душно 1010.9 998.6 +18.3
07 14.08 С 1 н/о н/о +23.7 +18.1 71 +28 +28 душно 1011.1 998.9
08 14.08 штиль 0 н/о н/о +25.4 +18.1 64 +30 +30 душно 1011.3 999.1
09 14.08 СЗ 1 н/о н/о +26.0 +18.2 62 +31 +31 очень
душно
1011.2 999.1
10 14.08 З 2 н/о н/о +26.7 +17.5 57 +31 +31 душно 1011.4 999.3
11 14.08 З 3
{9}
н/о н/о +27.7 +18.4 57 +33 +33 очень
душно
1011.1 999.0
12 14.08 З 2 н/о н/о +28.3 +17.8 53 +33 +33 очень
душно
1010.6 998.6
13 14.08 З 2 н/о н/о +29.3 +17.8 50 +34 +34 очень
душно
1010.3 998.3
14 14.08 З 2 н/о н/о +30.0 +17.8 48 +34 +34 очень
душно
1009.9 997.9
15 14.08 З 2 н/о н/о +28.8 +17.7 51 +33 +33 очень
душно
1009.5 997.5
16 14.08 Ю 5
{16}
н/о н/о +20.6 +17.2 81 +24 +24 комфорт 1011.7 999.3
17 14.08 З 4
{7}
н/о н/о +20.4 +19.2 93 +24 +24 комфорт 1012.5 1000.1
18 14.08 штиль 0 н/о н/о +20.0 +18.5 91 +23 +23 комфорт 1012.2 999.8 +30.1 4
19 14.08 СЗ 3 н/о н/о +19.9 +18.6 92 +23 +23 комфорт 1011.6 999.2
20 14.08 СЗ 3 н/о н/о +19.8 +18.1 90 +23 +23 комфорт 1011.9 999.5
21 14.08 ЮВ 1 н/о н/о +19.0 +17.1 89 +22 +22 комфорт 1012.8 1000.4
22 14.08 Ю 1 н/о н/о +18.2 +16.9 92 +20 +20 1013.1 1000.6
23 14.08 Ю 1 н/о н/о +17.9 +17.3 96 +19 +19 1013.5 1001.0
00 15.08 ЮЗ 3 н/о н/о +18.4 +17.4 94 +19 +19 1013.8 1001.3 0.1
01 15.08 Ю 2 н/о н/о +18.7 +17.5 93 +20 +20 1013.4 1000.9
02 15.08 З 2 н/о н/о +20.3 +17.7 85 +24 +24 комфорт 1013.3 1000.9
03 15.08 З 3 н/о н/о +20.4 +17.2 82 +24 +24 комфорт 1013.4 1001.0
04 15.08 СЗ 3
{7}
н/о н/о +20.3 +16.3 78 +24 +24 комфорт 1013.5 1001.1
05 15.08 СЗ 5
{8}
н/о н/о +20.5 +16.1 76 +23 +23 комфорт 1014.0 1001.6
06 15.08 СЗ 6
{9}
н/о н/о +20.7 +15.5 72 +24 +24 комфорт 1014.4 1002.0 +17.9 0.1
07 15.08 СЗ 6
{9}
н/о н/о +20.7 +15.3 71 +24 +24 комфорт 1015.0 1002.6
08 15.08 СЗ 4
{9}
н/о н/о +20.9 +15.0 69 +24 +24 комфорт 1015.4 1003.0
09 15.08 СЗ 3
{7}
н/о н/о +22.3 +16.1 68 +26 +26 жарко 1015.6 1003.3
10 15.08 СЗ 4
{7}
н/о н/о +24.5 +16.5 61 +28 +28 душно 1015.7 1003.4
11 15.08 СЗ 5
{8}
н/о н/о +25.8 +17.5 60 +30 +30 душно 1015.7 1003.5
12 15.08 СЗ 5
{9}
н/о н/о +26.1 +16.4 55 +30 +30 душно 1015.4 1003.2
13 15.08 СЗ 6
{9}
н/о н/о +26.5 +15.5 51 +30 +30 душно 1015.3 1003.1
14 15.08 СЗ 6
{10}
н/о н/о +27.1 +15.5 49 +30 +30 душно 1015.2 1003.1
15 15.08 СЗ 7
{10}
н/о н/о +27.1 +14.8 47 +30 +30 душно 1015.2 1003.1
16 15.08 СЗ 5
{8}
н/о н/о +27.2 +14.6 46 +30 +30 душно 1014.9 1002.8
17 15.08 СЗ 4
{8}
н/о н/о +27.0 +14.4 46 +29 +29 жарко 1014.9 1002.8
18 15.08 СЗ 2
{7}
н/о н/о +25.4 +14.8 52 +28 +28 жарко 1015.3 1003.1 +27.8
19 15.08 СЗ 2 н/о н/о +23.5 +16.1 63 +27 +27 душно 1016.1 1003.8
20 15.08 СЗ 1 н/о н/о +21.8 +15.9 69 +25 +25 комфорт 1016.7 1004.3
21 15.08 СВ 2 н/о н/о +21.7 +16.0 70 +25 +25 комфорт 1017.2 1004.8
22 15.08 В 1 н/о н/о +20.4 +16.8 80 +25 +25 комфорт 1017.5 1005.1
23 15.08 штиль 0 н/о н/о +18.5 +16.8 90 +19 +19 1017.7 1005.2
00 16.08 штиль 0 н/о н/о +17.8 +17.2 96 +18 +18 1017.6 1005.0
01 16.08 З 1 н/о н/о +18.2 +17.2 94 +20 +20 1017.4 1004.9
02 16.08 СЗ 2 н/о н/о +19.1 +17.1 88 +21 +21 комфорт 1017.3 1004.8
03 16.08 З 1 н/о н/о +18.2 +16.0 87 +20 +20 1017.4 1004.9
04 16.08 СЗ 1 н/о н/о +18.1 +15.9 87 +19 +19 1017.5 1005.0
05 16.08 З 1 н/о н/о +17.8 +15.8 88 +19 +19 1017.9 1005.3
06 16.08 ЮЗ 1 н/о н/о +20.3 +16.9 81 +24 +24 комфорт 1017.9 1005.4 +17.6
07 16.08 З 1 н/о н/о +22.4 +16.9 71 +27 +27 душно 1017.7 1005.3
08 16.08 С 1 н/о н/о +23.9 +15.4 59 +27 +27 жарко 1017.8 1005.5
09 16.08 С 1 н/о н/о +25.6 +15.6 54 +29 +29 душно 1017.7 1005.5
10 16.08 СЗ 2 н/о н/о +26.9 +16.2 52 +30 +30 душно 1017.4 1005.2
11 16.08 СЗ 2 н/о н/о +27.4 +15.1 47 +30 +30 жарко 1016.8 1004.7
12 16.08 С 1 н/о н/о +28.1 +13.6 41 +30 +30 жарко 1016.5 1004.4
13 16.08 СЗ 1 н/о н/о +28.8 +14.6 42 +31 +31 жарко 1016.2 1004.1
14 16.08 СЗ 1 н/о н/о +28.7 +13.8 40 +31 +31 жарко 1015.5 1003.4
15 16.08 СЗ 1 н/о н/о +28.9 +13.6 39 +31 +31 жарко 1015.3 1003.2
16 16.08 СЗ 1 н/о н/о +29.0 +12.8 37 +30 +30 жарко 1015.1 1003.0
17 16.08 З 1 н/о н/о +28.1 +14.4 43 +30 +30 жарко 1014.9 1002.8
18 16.08 З 1 н/о н/о +25.3 +16.2 57 +29 +29 душно 1015.2 1003.0 +29.7
19 16.08 штиль 0 н/о н/о +21.8 +16.3 71 +26 +26 душно 1015.7 1003.3
20 16.08 штиль 0 н/о н/о +20.6 +16.2 76 +23 +23 комфорт 1015.9 1003.5
21 16.08 Ю 1 н/о н/о +19.8 +17.0 84 +23 +23 комфорт 1016.1 1003.6
22 16.08 штиль 0 н/о н/о +18.8 +16.4 86 +20 +20 1016.2 1003.7
23 16.08 штиль 0 н/о н/о +18.2 +16.5 90 +19 +19 1016.2 1003.7
00 17.08 штиль 0 н/о н/о +17.9 +15.9 88 +18 +18 1016.3 1003.8
01 17.08 штиль 0 н/о н/о +17.4 +16.3 93 +17 +17 1016.3 1003.7
02 17.08 штиль 0 н/о н/о +17.1 +16.1 94 +17 +17 1016.3 1003.7
03 17.08 штиль 0 н/о н/о +16.7 +15.9 95 +17 +17 1016.1 1003.5
04 17.08 В 1 н/о н/о +16.4 +15.6 95 +17 +17 1016.2 1003.6
05 17.08 штиль 0 н/о н/о +17.4 +16.4 94 +17 +17 1016.5 1003.9
06 17.08 СВ 1 н/о н/о +21.4 +16.8 75 +25 +25 комфорт 1016.5 1004.1 +16.3
07 17.08 В 2 н/о н/о +23.0 +16.8 68 +28 +28 душно 1016.5 1004.2
08 17.08 В 2 н/о н/о +24.3 +17.5 66 +28 +28 душно 1016.5 1004.2
09 17.08 С 2 н/о н/о +25.9 +18.3 63 +31 +31 очень
душно
1016.5 1004.3
10 17.08 С 2 н/о н/о +27.0 +18.6 60 +32 +32 очень
душно
1016.3 1004.1
11 17.08 С 1 н/о н/о +26.5 +17.8 59 +31 +31 душно 1016.0 1003.8
12 17.08 С 1 н/о н/о +28.4 +16.7 49 +32 +32 душно 1015.6 1003.5
13 17.08 С 1 н/о н/о +28.7 +15.9 46 +32 +32 душно 1015.1 1003.0
14 17.08 СЗ 2 н/о н/о +29.7 +16.2 44 +33 +33 душно 1014.5 1002.5
15 17.08 штиль 0 н/о н/о +30.3 +15.6 41 +33 +33 душно 1014.2 1002.2
16 17.08 штиль 0 н/о н/о +29.9 +15.2 41 +32 +32 жарко 1014.1 1002.1
17 17.08 штиль 0 н/о н/о +29.6 +16.8 46 +33 +33 душно 1013.9 1001.9
18 17.08 З 1 н/о н/о +26.5 +18.4 61 +31 +31 душно 1014.4 1002.2 +30.3
19 17.08 штиль 0 н/о н/о +23.2 +17.9 72 +29 +29 душно 1015.2 1002.9
20 17.08 штиль 0 н/о н/о +21.7 +18.1 80 +26 +26 душно 1015.6 1003.2
21 17.08 штиль 0 н/о н/о +20.6 +17.6 83 +24 +24 комфорт 1015.8 1003.4
22 17.08 штиль 0 н/о н/о +19.8 +17.4 86 +22 +22 комфорт 1016.2 1003.7
23 17.08 штиль 0 н/о н/о +18.9 +17.2 90 +20 +20 1016.2 1003.7
00 18.08 ЮЗ 1 н/о н/о +18.7 +17.2 91 +21 +21 комфорт 1016.4 1003.9
01 18.08 ЮЗ 1 н/о н/о +18.4 +17.2 93 +20 +20 1016.4 1003.9
02 18.08 ЮЗ 1 н/о н/о +17.8 +16.8 94 +19 +19 1016.6 1004.1
03 18.08 Ю 1 н/о н/о +17.0 +16.2 95 +18 +18 1017.0 1004.4
04 18.08 штиль 0 н/о н/о +16.9 +16.1 95 +17 +17 1017.2 1004.6
05 18.08 штиль 0 н/о н/о +17.4 +16.4 94 +17 +17 1017.7 1005.1

 

Местоположение метеостанции Agard (Венгрия): широта 47.18 долгота 18.62 высота над уровнем моря 106 м.

В архиве по умолчанию представлена погода в Agard за последнюю неделю. Архивные данные за месяц целиком и за предыдущие месяцы, начиная с января 2011 года, Вы можете получить, выбрав интересующий диапазон дат из раскрывающегося списка и нажав кнопку "Ввод!".


*Определитесь, кто Вы:
робот инопланетянин человек

Внимание! Время в таблицах - всемирное. Для получения местного времени необходимо прибавить поправку, которая в Agard равна 1 ч.

Смотрите также архив погоды в соседних городах и на ближайших метеорологических станциях:

Погода в Budapest (Венгрия) (51 км)
Погода в Siofok (Венгрия) (52 км)
Погода в Tata (Венгрия) (57 км)
Погода в Veszprem (Венгрия) (61 км)
Погода в Tat (Венгрия) (63 км)
Погода в Paks (Венгрия) (69 км)
Погода в Hurbanovo (Словакия) (83 км)
Погода в Kecskemet (Венгрия) (90 км)
Погода в Gyor (Венгрия) (93 км)
Погода в Kaposvar (Венгрия) (107 км)

Пояснения к столбцам:

Ветер - указаны скорость ветра в м/с - средняя за 10 мин, порывы в срок и между сроками (в фигурных скобках) и направление, откуда дует ветер: С - северный, СВ - северо-восточный, В - восточный, ЮВ - юго-восточный, Ю - южный, ЮЗ - юго-западный, З - западный, СЗ - северо-западный.
Видимость - горизонтальная дальность видимости в метрах или километрах. При видимости от 1 до 10 км при отсутствии осадков обычно наблюдается дымка, при ухудшении видимости до 1 км и менее - туман. В сухую погоду видимость может ухудшаться дымом, пылью или мглою.
Явления - указаны атмосферные явления, наблюдавшиеся в срок или в последний час перед сроком; фигурными скобками обозначены явления, наблюдавшиеся между сроками (за 1-3 часа до срока); квадратными скобками обозначены град или гололедные отложения с указанием их диаметра в мм.
Облачность - указаны через наклонную черту общая и нижняя облачность в баллах и высота нижней границы облаков в метрах; квадратными скобками обозначены формы облаков: Ci - перистые, Cs - перисто-слоистые, Cc - перисто-кучевые, Ac - высококучевые, As - высокослоистые, Sc - слоисто-кучевые, Ns - слоисто-дождевые, Cu - кучевые, Cb - кучево-дождевые. Подробнее классификацию облаков см. в Атласе облаков (PDF).
T - Температура воздуха - температура, измеренная на высоте 2 м над землей.
Td - Температура точки росы - температура, при понижении до которой содержащийся в воздухе водяной пар достигнет насыщения.
f - Относительная влажность воздуха - влажноcть воздуха, измеренная на высоте 2 м над землей.
Te - Эффективная температура - температура, которую ощущает одетый по сезону человек в тени. Характеристика душности погоды. При расчете учитывается влияние влажности воздуха и скорости ветра на теплоощущения человека.
Tes - Эффективная температура на солнце - температура, которую ощущает человек, с поправкой на солнечный нагрев. Характеристика знойности погоды. Зависит от высоты солнца над горизонтом, облачности и скорости ветра. Ночью, в пасмурную погоду, а также при ветре 12 м/с и более поправка равна нулю.
P - Атмосферное давление - приведенное к уровню моря атмосферное давление.
Po - Атмосферное давление - измеренное на уровне метеостанции атмосферное давление.
Tmin - Минимальная температура - минимум температуры воздуха на высоте 2 м над землей.
Tmax - Максимальная температура - максимум температуры воздуха на высоте 2 м над землей.
R - Количество осадков - Количество выпавших осадков за период времени, мм. При наведении курсора мыши на число - период времени, за который выпало указанное количество осадков.
R24 - Количество осадков - Количество выпавших осадков за 24 часа, мм.
S - Снежный покров - Высота снежного покрова, см. При наведении курсора мыши на число - состояние снежного покрова и степень покрытия местности в баллах.